Time,TemperatureF,DewpointF,PressureIn,WindDirection,WindDirectionDegrees,WindSpeedMPH,WindSpeedGustMPH,Humidity,HourlyPrecipIn,Conditions,Clouds,dailyrainin,SoftwareType,DateUTC
2013-02-08 00:11:00,40.6,37.0,30.00,West,261,0.0,-999.0,88,-99.99,,,0.00,weatherlink.com 1.10,2013-02-08 08:11:00,
2013-02-08 00:26:00,40.6,38.0,29.99,WSW,258,5.0,-999.0,89,-99.99,,,0.01,weatherlink.com 1.10,2013-02-08 08:26:00,
2013-02-08 00:41:00,41.1,38.0,29.99,West,265,0.0,-999.0,88,-99.99,,,0.01,weatherlink.com 1.10,2013-02-08 08:41:00,
2013-02-08 00:56:00,41.5,38.0,29.98,West,273,3.0,-999.0,87,-99.99,,,0.01,weatherlink.com 1.10,2013-02-08 08:56:00,
2013-02-08 01:11:00,41.8,38.0,29.98,West,273,7.0,-999.0,86,-99.99,,,0.01,weatherlink.com 1.10,2013-02-08 09:11:00,
2013-02-08 01:26:00,41.6,38.0,29.98,WNW,296,7.0,-999.0,86,-99.99,,,0.02,weatherlink.com 1.10,2013-02-08 09:26:00,
2013-02-08 01:41:00,41.0,37.0,29.97,NNW,342,1.0,-999.0,87,-99.99,,,0.05,weatherlink.com 1.10,2013-02-08 09:41:00,
2013-02-08 01:56:00,40.5,37.0,29.97,WNW,284,0.0,-999.0,88,-99.99,,,0.06,weatherlink.com 1.10,2013-02-08 09:56:00,
2013-02-08 02:11:00,40.2,37.0,29.96,WNW,295,0.0,-999.0,89,-99.99,,,0.06,weatherlink.com 1.10,2013-02-08 10:11:00,
2013-02-08 02:26:00,40.1,37.0,29.96,WNW,296,0.0,-999.0,89,-99.99,,,0.07,weatherlink.com 1.10,2013-02-08 10:26:00,
2013-02-08 02:41:00,40.3,38.0,29.96,WNW,288,0.0,-999.0,90,-99.99,,,0.07,weatherlink.com 1.10,2013-02-08 10:41:00,
2013-02-08 02:56:00,40.3,38.0,29.95,WNW,288,0.0,-999.0,90,-99.99,,,0.07,weatherlink.com 1.10,2013-02-08 10:56:00,
2013-02-08 03:11:00,40.0,38.0,29.95,WNW,288,0.0,-999.0,91,-99.99,,,0.07,weatherlink.com 1.10,2013-02-08 11:11:00,
2013-02-08 03:26:00,39.5,37.0,29.95,WNW,288,0.0,-999.0,91,-99.99,,,0.07,weatherlink.com 1.10,2013-02-08 11:26:00,
2013-02-08 03:41:00,39.7,38.0,29.95,WNW,288,0.0,-999.0,92,-99.99,,,0.07,weatherlink.com 1.10,2013-02-08 11:41:00,
2013-02-08 03:56:00,39.5,37.0,29.95,WNW,288,0.0,-999.0,92,-99.99,,,0.07,weatherlink.com 1.10,2013-02-08 11:56:00,
2013-02-08 04:11:00,39.2,37.0,29.95,WNW,288,0.0,-999.0,92,-99.99,,,0.07,weatherlink.com 1.10,2013-02-08 12:11:00,
2013-02-08 04:26:00,39.2,37.0,29.95,WNW,288,0.0,-999.0,92,-99.99,,,0.07,weatherlink.com 1.10,2013-02-08 12:26:00,
2013-02-08 04:41:00,39.0,37.0,29.95,WNW,288,0.0,-999.0,93,-99.99,,,0.07,weatherlink.com 1.10,2013-02-08 12:41:00,
2013-02-08 04:56:00,39.0,37.0,29.96,WNW,288,0.0,-999.0,93,-99.99,,,0.07,weatherlink.com 1.10,2013-02-08 12:56:00,
2013-02-08 05:11:00,38.6,37.0,29.96,WNW,288,0.0,-999.0,93,-99.99,,,0.07,weatherlink.com 1.10,2013-02-08 13:11:00,
2013-02-08 05:26:00,38.5,37.0,29.96,NNW,327,5.0,-999.0,93,-99.99,,,0.07,weatherlink.com 1.10,2013-02-08 13:26:00,
2013-02-08 05:41:00,39.2,37.0,29.96,West,260,0.0,-999.0,93,-99.99,,,0.07,weatherlink.com 1.10,2013-02-08 13:41:00,
2013-02-08 05:56:00,38.8,37.0,29.97,WSW,242,0.0,-999.0,93,-99.99,,,0.07,weatherlink.com 1.10,2013-02-08 13:56:00,
2013-02-08 06:11:00,38.8,37.0,29.97,NW,314,0.0,-999.0,93,-99.99,,,0.07,weatherlink.com 1.10,2013-02-08 14:11:00,
2013-02-08 06:26:00,39.0,37.0,29.97,NW,325,0.0,-999.0,92,-99.99,,,0.07,weatherlink.com 1.10,2013-02-08 14:26:00,
2013-02-08 06:41:00,39.3,37.0,29.98,NW,310,0.0,-999.0,91,-99.99,,,0.07,weatherlink.com 1.10,2013-02-08 14:41:00,
2013-02-08 06:56:00,39.9,37.0,29.98,WNW,297,0.0,-999.0,89,-99.99,,,0.07,weatherlink.com 1.10,2013-02-08 14:56:00,
2013-02-08 07:11:00,40.2,37.0,29.98,NW,310,0.0,-999.0,88,-99.99,,,0.07,weatherlink.com 1.10,2013-02-08 15:11:00,
2013-02-08 07:26:00,39.7,36.0,29.98,NW,307,0.0,-999.0,87,-99.99,,,0.07,weatherlink.com 1.10,2013-02-08 15:26:00,
2013-02-08 07:41:00,39.4,36.0,30.00,West,281,1.0,-999.0,88,-99.99,,,0.07,weatherlink.com 1.10,2013-02-08 15:41:00,
2013-02-08 07:56:00,39.4,37.0,30.00,WNW,284,0.0,-999.0,89,-99.99,,,0.07,weatherlink.com 1.10,2013-02-08 15:56:00,
2013-02-08 08:11:00,39.6,36.0,30.00,NNW,329,0.0,-999.0,88,-99.99,,,0.07,weatherlink.com 1.10,2013-02-08 16:11:00,
2013-02-08 08:26:00,39.8,37.0,30.00,NW,315,0.0,-999.0,88,-99.99,,,0.07,weatherlink.com 1.10,2013-02-08 16:26:00,
2013-02-08 08:41:00,40.7,38.0,30.00,West,281,0.0,-999.0,88,-99.99,,,0.07,weatherlink.com 1.10,2013-02-08 16:41:00,
2013-02-08 08:56:00,42.4,39.0,30.01,South,179,0.0,-999.0,88,-99.99,,,0.07,weatherlink.com 1.10,2013-02-08 16:56:00,
2013-02-08 09:11:00,43.7,39.0,30.01,West,277,2.0,-999.0,84,-99.99,,,0.07,weatherlink.com 1.10,2013-02-08 17:11:00,
2013-02-08 09:26:00,44.5,39.0,30.01,WNW,290,0.0,-999.0,82,-99.99,,,0.07,weatherlink.com 1.10,2013-02-08 17:26:00,
2013-02-08 09:41:00,44.5,39.0,30.02,WNW,302,6.0,-999.0,81,-99.99,,,0.07,weatherlink.com 1.10,2013-02-08 17:41:00,
2013-02-08 09:56:00,45.3,40.0,30.02,NW,326,0.0,-999.0,81,-99.99,,,0.07,weatherlink.com 1.10,2013-02-08 17:56:00,
2013-02-08 10:11:00,46.0,39.0,30.02,WNW,292,2.0,-999.0,76,-99.99,,,0.07,weatherlink.com 1.10,2013-02-08 18:11:00,
2013-02-08 10:26:00,46.4,39.0,30.02,WNW,287,3.0,-999.0,76,-99.99,,,0.07,weatherlink.com 1.10,2013-02-08 18:26:00,
2013-02-08 10:41:00,46.5,39.0,30.02,ESE,110,3.0,-999.0,75,-99.99,,,0.07,weatherlink.com 1.10,2013-02-08 18:41:00,
2013-02-08 10:55:00,47.1,40.0,30.02,WNW,296,1.0,-999.0,75,-99.99,,,0.07,weatherlink.com 1.10,2013-02-08 18:55:00,
2013-02-08 11:10:00,48.1,38.0,30.02,NW,315,0.0,-999.0,69,-99.99,,,0.07,weatherlink.com 1.10,2013-02-08 19:10:00,
2013-02-08 11:25:00,48.5,38.0,30.02,NNW,342,2.0,-999.0,67,-99.99,,,0.07,weatherlink.com 1.10,2013-02-08 19:25:00,
2013-02-08 11:40:00,49.4,38.0,30.01,WNW,283,2.0,-999.0,65,-99.99,,,0.07,weatherlink.com 1.10,2013-02-08 19:40:00,
2013-02-08 11:55:00,49.7,39.0,30.00,NNE,18,0.0,-999.0,66,-99.99,,,0.07,weatherlink.com 1.10,2013-02-08 19:55:00,
2013-02-08 12:10:00,52.3,39.0,30.00,SE,146,1.0,-999.0,60,-99.99,,,0.07,weatherlink.com 1.10,2013-02-08 20:10:00,
2013-02-08 12:25:00,52.3,39.0,30.00,West,259,0.0,-999.0,62,-99.99,,,0.07,weatherlink.com 1.10,2013-02-08 20:25:00,
2013-02-08 12:40:00,52.8,38.0,29.99,WNW,292,4.0,-999.0,58,-99.99,,,0.07,weatherlink.com 1.10,2013-02-08 20:40:00,
2013-02-08 12:55:00,53.7,40.0,29.99,WSW,257,0.0,-999.0,61,-99.99,,,0.07,weatherlink.com 1.10,2013-02-08 20:55:00,
2013-02-08 13:10:00,55.3,41.0,29.99,West,265,0.0,-999.0,58,-99.99,,,0.07,weatherlink.com 1.10,2013-02-08 21:10:00,
2013-02-08 13:25:00,55.0,40.0,29.99,NW,307,2.0,-999.0,58,-99.99,,,0.07,weatherlink.com 1.10,2013-02-08 21:25:00,
2013-02-08 13:40:00,54.7,40.0,29.98,WNW,291,0.0,-999.0,59,-99.99,,,0.07,weatherlink.com 1.10,2013-02-08 21:40:00,
2013-02-08 13:55:00,54.8,40.0,29.97,WSW,257,1.0,-999.0,58,-99.99,,,0.07,weatherlink.com 1.10,2013-02-08 21:55:00,
2013-02-08 14:10:00,55.2,39.0,29.97,SW,229,0.0,-999.0,54,-99.99,,,0.07,weatherlink.com 1.10,2013-02-08 22:10:00,
2013-02-08 14:25:00,55.5,39.0,29.96,NW,318,7.0,-999.0,55,-99.99,,,0.07,weatherlink.com 1.10,2013-02-08 22:25:00,
2013-02-08 14:40:00,53.7,38.0,29.96,West,263,7.0,-999.0,56,-99.99,,,0.07,weatherlink.com 1.10,2013-02-08 22:40:00,
2013-02-08 14:55:00,53.8,37.0,29.95,NW,319,7.0,-999.0,54,-99.99,,,0.07,weatherlink.com 1.10,2013-02-08 22:55:00,
2013-02-08 15:10:00,53.4,37.0,29.95,West,278,5.0,-999.0,54,-99.99,,,0.07,weatherlink.com 1.10,2013-02-08 23:10:00,
2013-02-08 15:25:00,53.4,37.0,29.95,WSW,248,5.0,-999.0,54,-99.99,,,0.07,weatherlink.com 1.10,2013-02-08 23:25:00,
2013-02-08 15:40:00,53.1,37.0,29.95,NNW,333,5.0,-999.0,55,-99.99,,,0.07,weatherlink.com 1.10,2013-02-08 23:40:00,
2013-02-08 15:55:00,52.8,36.0,29.95,NW,324,17.0,-999.0,54,-99.99,,,0.07,weatherlink.com 1.10,2013-02-08 23:55:00,
2013-02-08 16:10:00,52.2,36.0,29.94,NW,308,3.0,-999.0,55,-99.99,,,0.07,weatherlink.com 1.10,2013-02-09 00:10:00,
2013-02-08 16:25:00,51.5,38.0,29.94,West,272,13.0,-999.0,60,-99.99,,,0.07,weatherlink.com 1.10,2013-02-09 00:25:00,
2013-02-08 16:40:00,50.9,39.0,29.94,West,263,7.0,-999.0,63,-99.99,,,0.07,weatherlink.com 1.10,2013-02-09 00:40:00,
2013-02-08 16:55:00,50.0,38.0,29.94,WSW,257,10.0,-999.0,63,-99.99,,,0.07,weatherlink.com 1.10,2013-02-09 00:55:00,
2013-02-08 17:10:00,49.9,37.0,29.94,NNW,336,13.0,-999.0,62,-99.99,,,0.07,weatherlink.com 1.10,2013-02-09 01:10:00,
2013-02-08 17:25:00,49.7,37.0,29.94,WNW,292,14.0,-999.0,62,-99.99,,,0.07,weatherlink.com 1.10,2013-02-09 01:25:00,
2013-02-08 17:40:00,49.6,37.0,29.95,NW,304,16.0,-999.0,63,-99.99,,,0.07,weatherlink.com 1.10,2013-02-09 01:40:00,
2013-02-08 17:56:00,49.4,38.0,29.95,West,268,3.0,-999.0,65,-99.99,,,0.07,weatherlink.com 1.10,2013-02-09 01:56:00,
2013-02-08 18:11:00,48.7,39.0,29.96,NNE,13,1.0,-999.0,68,-99.99,,,0.07,weatherlink.com 1.10,2013-02-09 02:11:00,
2013-02-08 18:26:00,48.0,38.0,29.96,NNW,343,3.0,-999.0,69,-99.99,,,0.07,weatherlink.com 1.10,2013-02-09 02:26:00,
2013-02-08 18:41:00,47.7,38.0,29.97,NW,307,0.0,-999.0,69,-99.99,,,0.07,weatherlink.com 1.10,2013-02-09 02:41:00,
2013-02-08 18:56:00,47.5,38.0,29.97,West,273,0.0,-999.0,69,-99.99,,,0.07,weatherlink.com 1.10,2013-02-09 02:56:00,
2013-02-08 19:11:00,48.0,37.0,29.97,West,269,4.0,-999.0,66,-99.99,,,0.07,weatherlink.com 1.10,2013-02-09 03:11:00,
2013-02-08 19:26:00,48.2,36.0,29.98,WSW,258,3.0,-999.0,64,-99.99,,,0.07,weatherlink.com 1.10,2013-02-09 03:26:00,
2013-02-08 19:41:00,48.1,36.0,29.98,WSW,254,0.0,-999.0,64,-99.99,,,0.07,weatherlink.com 1.10,2013-02-09 03:41:00,
2013-02-08 19:56:00,47.8,36.0,29.98,West,275,1.0,-999.0,64,-99.99,,,0.07,weatherlink.com 1.10,2013-02-09 03:56:00,
2013-02-08 20:11:00,47.8,36.0,29.98,West,281,2.0,-999.0,64,-99.99,,,0.07,weatherlink.com 1.10,2013-02-09 04:11:00,
2013-02-08 20:26:00,47.9,36.0,29.98,NNW,348,8.0,-999.0,64,-99.99,,,0.07,weatherlink.com 1.10,2013-02-09 04:26:00,
2013-02-08 20:41:00,47.7,36.0,29.98,West,266,0.0,-999.0,65,-99.99,,,0.07,weatherlink.com 1.10,2013-02-09 04:41:00,
2013-02-08 20:56:00,47.5,34.0,29.98,WNW,284,3.0,-999.0,61,-99.99,,,0.07,weatherlink.com 1.10,2013-02-09 04:56:00,
2013-02-08 21:11:00,48.2,33.0,29.98,North,355,5.0,-999.0,57,-99.99,,,0.07,weatherlink.com 1.10,2013-02-09 05:11:00,
2013-02-08 21:26:00,48.5,33.0,29.99,West,280,2.0,-999.0,55,-99.99,,,0.07,weatherlink.com 1.10,2013-02-09 05:26:00,
2013-02-08 21:41:00,48.4,31.0,29.99,WSW,253,0.0,-999.0,52,-99.99,,,0.07,weatherlink.com 1.10,2013-02-09 05:41:00,
2013-02-08 21:56:00,48.8,30.0,29.99,West,268,0.0,-999.0,48,-99.99,,,0.07,weatherlink.com 1.10,2013-02-09 05:56:00,
2013-02-08 22:11:00,48.8,28.0,29.99,North,5,2.0,-999.0,45,-99.99,,,0.07,weatherlink.com 1.10,2013-02-09 06:11:00,
2013-02-08 22:26:00,49.2,27.0,29.99,NE,55,5.0,-999.0,42,-99.99,,,0.07,weatherlink.com 1.10,2013-02-09 06:26:00,
2013-02-08 22:41:00,49.4,26.0,29.99,WNW,283,0.0,-999.0,41,-99.99,,,0.07,weatherlink.com 1.10,2013-02-09 06:41:00,
2013-02-08 22:56:00,49.3,25.0,29.99,ESE,106,3.0,-999.0,39,-99.99,,,0.07,weatherlink.com 1.10,2013-02-09 06:56:00,
2013-02-08 23:11:00,49.2,26.0,29.99,North,360,0.0,-999.0,40,-99.99,,,0.07,weatherlink.com 1.10,2013-02-09 07:11:00,
2013-02-08 23:26:00,48.5,26.0,29.99,West,277,5.0,-999.0,42,-99.99,,,0.07,weatherlink.com 1.10,2013-02-09 07:26:00,
2013-02-08 23:41:00,48.1,28.0,30.00,WNW,296,0.0,-999.0,45,-99.99,,,0.07,weatherlink.com 1.10,2013-02-09 07:41:00,
2013-02-08 23:56:00,47.4,28.0,30.00,WNW,300,1.0,-999.0,47,-99.99,,,0.07,weatherlink.com 1.10,2013-02-09 07:56:00,